| time (UTC) | temp F | wind direction | speed MPH | gust MPH | rain 1hr in | rain 24hr in | rain mn in | humidity % | barometer mb |
| 20260831014610 | 67 | 85 | 1.0 | 6.0 | 0.00 | 0.00 | 0.00 | 86 | 1013.0 |
| 20260831014056 | 67 | 275 | 0.0 | 0.0 | 0.00 | 0.00 | 0.00 | 85 | 1012.9 |
| 20260831013556 | 67 | 257 | 0.0 | 2.0 | 0.00 | 0.00 | 0.00 | 85 | 1012.9 |
| 20260831013057 | 67 | 257 | 0.0 | 3.0 | 0.00 | 0.00 | 0.00 | 85 | 1012.8 |
| 20260831012555 | 67 | 281 | 0.0 | 6.0 | 0.00 | 0.00 | 0.00 | 85 | 1012.9 |
| 20260831012054 | 67 | 264 | 0.0 | 6.0 | 0.00 | 0.00 | 0.00 | 85 | 1012.9 |
| 20260831011610 | 67 | 246 | 0.0 | 6.0 | 0.00 | 0.00 | 0.00 | 85 | 1012.8 |
| 20260831011054 | 68 | 248 | 1.0 | 6.0 | 0.00 | 0.00 | 0.00 | 85 | 1012.9 |
| 20260831010554 | 68 | 250 | 1.0 | 8.0 | 0.00 | 0.00 | 0.00 | 85 | 1012.9 |
| 20260831010054 | 68 | 272 | 2.0 | 8.0 | 0.00 | 0.00 | 0.00 | 85 | 1012.8 |
| 20260831005556 | 68 | 259 | 3.0 | 8.0 | 0.00 | 0.00 | 0.00 | 85 | 1012.9 |
| 20260831005058 | 69 | 261 | 2.0 | 6.0 | 0.00 | 0.00 | 0.00 | 85 | 1012.8 |
| 20260831004555 | 69 | 234 | 2.0 | 6.0 | 0.00 | 0.00 | 0.00 | 85 | 1012.8 |
| 20260831004053 | 69 | 270 | 2.0 | 8.0 | 0.00 | 0.00 | 0.00 | 85 | 1012.8 |
| 20260831003554 | 69 | 286 | 3.0 | 8.0 | 0.00 | 0.00 | 0.00 | 85 | 1012.8 |
| 20260831003056 | 69 | 231 | 2.0 | 6.0 | 0.00 | 0.00 | 0.00 | 84 | 1012.8 |
| 20260831002557 | 69 | 251 | 2.0 | 8.0 | 0.00 | 0.00 | 0.00 | 84 | 1012.8 |
| 20260831002053 | 70 | 250 | 2.0 | 8.0 | 0.00 | 0.00 | 0.00 | 84 | 1012.8 |
| 20260831001602 | 70 | 272 | 4.0 | 8.0 | 0.00 | 0.00 | 0.00 | 84 | 1012.8 |
| 20260831001052 | 70 | 264 | 3.0 | 10.0 | 0.00 | 0.00 | 0.00 | 84 | 1012.8 |
| 20260831000552 | 70 | 263 | 6.0 | 10.0 | 0.00 | 0.00 | 0.00 | 84 | 1012.7 |
| 20260831000052 | 70 | 271 | 2.0 | 9.0 | 0.00 | 0.00 | 0.00 | 84 | 1012.7 |
| 20260830235551 | 71 | 269 | 4.0 | 9.0 | 0.00 | 0.00 | 0.00 | 84 | 1012.7 |
| 20260830235051 | 71 | 267 | 4.0 | 10.0 | 0.00 | 0.00 | 0.00 | 83 | 1012.7 |
| 20260830234551 | 71 | 279 | 4.0 | 10.0 | 0.00 | 0.00 | 0.00 | 83 | 1012.6 |
| 20260830234050 | 71 | 254 | 5.0 | 10.0 | 0.00 | 0.00 | 0.00 | 83 | 1012.7 |
| 20260830233551 | 72 | 288 | 5.0 | 10.0 | 0.00 | 0.00 | 0.00 | 83 | 1012.7 |
| 20260830233053 | 72 | 256 | 3.0 | 8.0 | 0.00 | 0.00 | 0.00 | 83 | 1012.7 |
| 20260830232551 | 72 | 304 | 5.0 | 9.0 | 0.00 | 0.00 | 0.00 | 83 | 1012.7 |
| 20260830232049 | 72 | 227 | 2.0 | 9.0 | 0.00 | 0.00 | 0.00 | 82 | 1012.7 |
| 20260830231550 | 72 | 252 | 1.0 | 10.0 | 0.00 | 0.00 | 0.00 | 82 | 1012.8 |
| 20260830231049 | 72 | 273 | 5.0 | 11.0 | 0.00 | 0.00 | 0.00 | 82 | 1012.9 |
| 20260830230547 | 72 | 271 | 5.0 | 11.0 | 0.00 | 0.00 | 0.00 | 82 | 1012.9 |
| 20260830230047 | 72 | 279 | 2.0 | 9.0 | 0.00 | 0.00 | 0.00 | 82 | 1012.9 |
| 20260830225547 | 73 | 257 | 4.0 | 9.0 | 0.00 | 0.00 | 0.00 | 82 | 1012.9 |
| 20260830225048 | 72 | 261 | 3.0 | 9.0 | 0.00 | 0.00 | 0.00 | 82 | 1013.0 |
| 20260830224606 | 72 | 268 | 3.0 | 9.0 | 0.00 | 0.00 | 0.00 | 82 | 1013.1 |
| 20260830224046 | 72 | 277 | 4.0 | 9.0 | 0.00 | 0.00 | 0.00 | 82 | 1013.2 |
| 20260830223546 | 72 | 266 | 2.0 | 10.0 | 0.00 | 0.00 | 0.00 | 82 | 1013.3 |
| 20260830223050 | 72 | 254 | 3.0 | 10.0 | 0.00 | 0.00 | 0.00 | 82 | 1013.4 |
| 20260830222544 | 72 | 283 | 3.0 | 10.0 | 0.00 | 0.00 | 0.00 | 82 | 1013.4 |
| 20260830222045 | 72 | 277 | 2.0 | 12.0 | 0.00 | 0.00 | 0.00 | 82 | 1013.4 |
| 20260830221545 | 72 | 269 | 4.0 | 11.0 | 0.00 | 0.00 | 0.00 | 83 | 1013.4 |
| 20260830221045 | 72 | 269 | 5.0 | 11.0 | 0.00 | 0.00 | 0.00 | 82 | 1013.5 |
| 20260830220544 | 72 | 264 | 3.0 | 10.0 | 0.00 | 0.00 | 0.00 | 82 | 1013.6 |
| 20260830220026 | 72 | 254 | 3.0 | 10.0 | 0.00 | 0.00 | 0.00 | 82 | 1013.6 |
| 20260830215526 | 72 | 258 | 4.0 | 10.0 | 0.00 | 0.00 | 0.00 | 82 | 1013.6 |
| 20260830215025 | 72 | 259 | 4.0 | 12.0 | 0.00 | 0.00 | 0.00 | 82 | 1013.6 |
| 20260830214536 | 72 | 292 | 3.0 | 12.0 | 0.00 | 0.00 | 0.00 | 82 | 1013.8 |
| 20260830214025 | 72 | 308 | 4.0 | 11.0 | 0.00 | 0.00 | 0.00 | 82 | 1013.9 |
| 20260830213525 | 72 | 254 | 5.0 | 11.0 | 0.00 | 0.00 | 0.00 | 82 | 1013.9 |
| 20260830213025 | 73 | 204 | 5.0 | 10.0 | 0.00 | 0.00 | 0.00 | 82 | 1013.8 |
| 20260830212525 | 72 | 301 | 5.0 | 10.0 | 0.00 | 0.00 | 0.00 | 81 | 1013.9 |
| 20260830212015 | 73 | 260 | 3.0 | 10.0 | 0.00 | 0.00 | 0.00 | 81 | 1013.9 |
| 20260830211518 | 73 | 273 | 2.0 | 11.0 | 0.00 | 0.00 | 0.00 | 81 | 1013.8 |
| 20260830211015 | 73 | 229 | 5.0 | 11.0 | 0.00 | 0.00 | 0.00 | 81 | 1013.9 |
| 20260830210514 | 72 | 275 | 3.0 | 10.0 | 0.00 | 0.00 | 0.00 | 81 | 1013.9 |
| 20260830210025 | 72 | 250 | 3.0 | 12.0 | 0.00 | 0.00 | 0.00 | 82 | 1013.8 |
| 20260830205518 | 72 | 236 | 3.0 | 12.0 | 0.00 | 0.00 | 0.00 | 81 | 1013.9 |
| 20260830205013 | 72 | 285 | 3.0 | 12.0 | 0.00 | 0.00 | 0.00 | 81 | 1014.0 |
| 20260830204512 | 72 | 281 | 4.0 | 10.0 | 0.00 | 0.00 | 0.00 | 81 | 1014.0 |
| 20260830204012 | 72 | 266 | 5.0 | 10.0 | 0.00 | 0.00 | 0.00 | 81 | 1014.0 |
| 20260830203513 | 72 | 259 | 4.0 | 10.0 | 0.00 | 0.00 | 0.00 | 81 | 1014.0 |
| 20260830203011 | 72 | 244 | 1.0 | 10.0 | 0.00 | 0.00 | 0.00 | 81 | 1014.0 |
| 20260830202510 | 72 | 279 | 4.0 | 10.0 | 0.00 | 0.00 | 0.00 | 81 | 1014.0 |
| 20260830202110 | 72 | 289 | 4.0 | 10.0 | 0.00 | 0.00 | 0.00 | 81 | 1014.0 |
| 20260830201510 | 71 | 289 | 5.0 | 11.0 | 0.00 | 0.00 | 0.00 | 80 | 1014.0 |
| 20260830201008 | 71 | 302 | 5.0 | 11.0 | 0.00 | 0.00 | 0.00 | 81 | 1014.0 |
| 20260830200508 | 72 | 270 | 7.0 | 12.0 | 0.00 | 0.00 | 0.00 | 80 | 1014.0 |
| 20260830200008 | 72 | 293 | 7.0 | 12.0 | 0.00 | 0.00 | 0.00 | 80 | 1014.0 |
| 20260830195507 | 72 | 277 | 5.0 | 11.0 | 0.00 | 0.00 | 0.00 | 80 | 1014.0 |
| 20260830195006 | 71 | 264 | 5.0 | 11.0 | 0.00 | 0.00 | 0.00 | 80 | 1014.0 |
| 20260830194504 | 71 | 268 | 3.0 | 11.0 | 0.00 | 0.00 | 0.00 | 80 | 1014.0 |
| 20260830194004 | 70 | 294 | 6.0 | 11.0 | 0.00 | 0.00 | 0.00 | 80 | 1014.1 |
| 20260830193502 | 70 | 288 | 5.0 | 8.0 | 0.00 | 0.00 | 0.00 | 79 | 1014.1 |
| 20260830193002 | 70 | 308 | 3.0 | 8.0 | 0.00 | 0.00 | 0.00 | 80 | 1014.0 |
| 20260830192502 | 70 | 288 | 4.0 | 8.0 | 0.00 | 0.00 | 0.00 | 78 | 1014.2 |
| 20260830192103 | 70 | 249 | 1.0 | 8.0 | 0.00 | 0.00 | 0.00 | 79 | 1014.3 |
| 20260830191600 | 69 | 293 | 2.0 | 8.0 | 0.00 | 0.00 | 0.00 | 79 | 1014.2 |
| 20260830191059 | 69 | 281 | 3.0 | 8.0 | 0.00 | 0.00 | 0.00 | 78 | 1014.4 |
| 20260830190558 | 69 | 275 | 3.0 | 8.0 | 0.00 | 0.00 | 0.00 | 77 | 1014.3 |
| 20260830190057 | 69 | 257 | 2.0 | 9.0 | 0.00 | 0.00 | 0.00 | 77 | 1014.4 |
| 20260830185556 | 68 | 308 | 5.0 | 9.0 | 0.00 | 0.00 | 0.00 | 78 | 1014.4 |
| 20260830185056 | 68 | 316 | 3.0 | 9.0 | 0.00 | 0.00 | 0.00 | 78 | 1014.3 |
| 20260830184554 | 67 | 299 | 4.0 | 9.0 | 0.00 | 0.00 | 0.00 | 78 | 1014.3 |
| 20260830184052 | 67 | 292 | 3.0 | 9.0 | 0.00 | 0.00 | 0.00 | 78 | 1014.4 |
| 20260830183550 | 67 | 304 | 4.0 | 9.0 | 0.00 | 0.00 | 0.00 | 78 | 1014.3 |
| 20260830183049 | 66 | 289 | 3.0 | 9.0 | 0.00 | 0.00 | 0.00 | 78 | 1014.3 |
| 20260830182548 | 66 | 289 | 5.0 | 10.0 | 0.00 | 0.00 | 0.00 | 78 | 1014.4 |
| 20260830182047 | 65 | 305 | 4.0 | 10.0 | 0.00 | 0.00 | 0.00 | 79 | 1014.4 |
| 20260830181547 | 65 | 296 | 6.0 | 9.0 | 0.00 | 0.00 | 0.00 | 79 | 1014.4 |
| 20260830181044 | 65 | 273 | 5.0 | 9.0 | 0.00 | 0.00 | 0.00 | 78 | 1014.5 |
| 20260830180544 | 64 | 310 | 2.0 | 9.0 | 0.00 | 0.00 | 0.00 | 79 | 1014.4 |
| 20260830180048 | 64 | 316 | 2.0 | 10.0 | 0.00 | 0.00 | 0.00 | 79 | 1014.5 |
| 20260830175541 | 64 | 262 | 4.0 | 10.0 | 0.00 | 0.00 | 0.00 | 79 | 1014.6 |
| 20260830175043 | 64 | 274 | 5.0 | 10.0 | 0.00 | 0.00 | 0.00 | 79 | 1014.6 |
| 20260830174541 | 63 | 288 | 3.0 | 10.0 | 0.00 | 0.00 | 0.00 | 79 | 1014.6 |
| 20260830174037 | 63 | 322 | 4.0 | 10.0 | 0.00 | 0.00 | 0.00 | 79 | 1014.6 |
| 20260830173536 | 62 | 314 | 4.0 | 10.0 | 0.00 | 0.00 | 0.00 | 79 | 1014.5 |
| 20260830173034 | 61 | 297 | 5.0 | 10.0 | 0.00 | 0.00 | 0.00 | 80 | 1014.4 |
| 20260830172532 | 61 | 283 | 3.0 | 9.0 | 0.00 | 0.00 | 0.00 | 79 | 1014.4 |
| 20260830172032 | 60 | 269 | 3.0 | 8.0 | 0.00 | 0.00 | 0.00 | 79 | 1014.3 |
| 20260830171530 | 60 | 292 | 3.0 | 7.0 | 0.00 | 0.00 | 0.00 | 79 | 1014.4 |
| 20260830171028 | 60 | 273 | 2.0 | 7.0 | 0.00 | 0.00 | 0.00 | 79 | 1014.4 |
| 20260830170529 | 59 | 285 | 3.0 | 7.0 | 0.00 | 0.00 | 0.00 | 79 | 1014.3 |
| 20260830170026 | 59 | 329 | 2.0 | 7.0 | 0.00 | 0.00 | 0.00 | 80 | 1014.2 |
| 20260830165523 | 58 | 304 | 0.0 | 3.0 | 0.00 | 0.00 | 0.00 | 80 | 1014.2 |
| 20260830165022 | 58 | 304 | 0.0 | 6.0 | 0.00 | 0.00 | 0.00 | 80 | 1014.2 |
| 20260830164545 | 57 | 295 | 0.0 | 6.0 | 0.00 | 0.00 | 0.00 | 80 | 1014.1 |
| 20260830164021 | 57 | 308 | 2.0 | 6.0 | 0.00 | 0.00 | 0.00 | 81 | 1014.2 |
| 20260830163519 | 57 | 342 | 1.0 | 4.0 | 0.00 | 0.00 | 0.00 | 81 | 1014.3 |
| 20260830163021 | 57 | 343 | 1.0 | 6.0 | 0.00 | 0.00 | 0.00 | 81 | 1014.2 |
| 20260830162517 | 56 | 311 | 2.0 | 6.0 | 0.00 | 0.00 | 0.00 | 81 | 1014.4 |
| 20260830162016 | 56 | 287 | 0.0 | 6.0 | 0.00 | 0.00 | 0.00 | 81 | 1014.3 |
| 20260830161516 | 56 | 281 | 2.0 | 6.0 | 0.00 | 0.00 | 0.00 | 81 | 1014.4 |
| 20260830161015 | 56 | 290 | 1.0 | 6.0 | 0.00 | 0.00 | 0.00 | 81 | 1014.4 |
| 20260830160514 | 55 | 264 | 2.0 | 5.0 | 0.00 | 0.00 | 0.00 | 81 | 1014.4 |
| 20260830160014 | 55 | 329 | 1.0 | 4.0 | 0.00 | 0.00 | 0.00 | 81 | 1014.4 |
| 20260830155514 | 55 | 353 | 0.0 | 3.0 | 0.00 | 0.00 | 0.00 | 81 | 1014.4 |
| 20260830155014 | 55 | 353 | 0.0 | 2.0 | 0.00 | 0.00 | 0.00 | 81 | 1014.3 |
| 20260830154513 | 55 | 353 | 0.0 | 3.0 | 0.00 | 0.00 | 0.00 | 81 | 1014.3 |
| 20260830154013 | 55 | 353 | 0.0 | 3.0 | 0.00 | 0.00 | 0.00 | 82 | 1014.4 |
| 20260830153515 | 55 | 353 | 0.0 | 2.0 | 0.00 | 0.00 | 0.00 | 82 | 1014.3 |
| 20260830153013 | 54 | 353 | 0.0 | 5.0 | 0.00 | 0.00 | 0.00 | 82 | 1014.3 |
| 20260830152511 | 54 | 352 | 0.0 | 5.0 | 0.00 | 0.00 | 0.00 | 82 | 1014.3 |
| 20260830152013 | 54 | 343 | 0.0 | 2.0 | 0.00 | 0.00 | 0.00 | 82 | 1014.4 |
| 20260830151511 | 53 | 332 | 0.0 | 0.0 | 0.00 | 0.00 | 0.00 | 82 | 1014.3 |
| 20260830151009 | 53 | 332 | 0.0 | 0.0 | 0.00 | 0.00 | 0.00 | 82 | 1014.3 |
| 20260830150509 | 53 | 332 | 0.0 | 0.0 | 0.00 | 0.00 | 0.00 | 82 | 1014.4 |
| 20260830150008 | 53 | 332 | 0.0 | 4.0 | 0.00 | 0.00 | 0.00 | 82 | 1014.3 |
| 20260830145507 | 53 | 332 | 0.0 | 3.0 | 0.00 | 0.00 | 0.00 | 82 | 1014.3 |
| 20260830145009 | 52 | 48 | 0.0 | 0.0 | 0.00 | 0.00 | 0.00 | 82 | 1014.3 |
| 20260830144504 | 52 | 48 | 0.0 | 2.0 | 0.00 | 0.00 | 0.00 | 82 | 1014.2 |
| 20260830144004 | 52 | 48 | 0.0 | 2.0 | 0.00 | 0.00 | 0.00 | 82 | 1014.2 |
| 20260830143504 | 52 | 48 | 0.0 | 0.0 | 0.00 | 0.00 | 0.00 | 82 | 1014.1 |
| 20260830143003 | 52 | 48 | 0.0 | 0.0 | 0.00 | 0.00 | 0.00 | 82 | 1014.0 |
| 20260830142603 | 52 | 48 | 0.0 | 0.0 | 0.00 | 0.00 | 0.00 | 82 | 1014.0 |
| 20260830142002 | 51 | 48 | 0.0 | 0.0 | 0.00 | 0.00 | 0.00 | 82 | 1014.0 |
| 20260830141600 | 51 | 48 | 0.0 | 2.0 | 0.00 | 0.00 | 0.00 | 82 | 1014.0 |
| 20260830141102 | 51 | 48 | 0.0 | 2.0 | 0.00 | 0.00 | 0.00 | 82 | 1013.8 |
| 20260830140600 | 51 | 48 | 0.0 | 0.0 | 0.00 | 0.00 | 0.00 | 82 | 1013.7 |
| 20260830140051 | 50 | 48 | 0.0 | 0.0 | 0.00 | 0.00 | 0.00 | 82 | 1013.5 |
| 20260830135550 | 50 | 48 | 0.0 | 0.0 | 0.00 | 0.00 | 0.00 | 82 | 1013.5 |
| 20260830135047 | 51 | 48 | 0.0 | 0.0 | 0.00 | 0.00 | 0.00 | 82 | 1013.5 |
| 20260830134547 | 51 | 48 | 0.0 | 0.0 | 0.00 | 0.00 | 0.00 | 82 | 1013.4 |
| 20260830134048 | 51 | 48 | 0.0 | 2.0 | 0.00 | 0.00 | 0.00 | 82 | 1013.4 |
| 20260830133545 | 51 | 48 | 0.0 | 4.0 | 0.00 | 0.00 | 0.00 | 82 | 1013.4 |
| 20260830133045 | 51 | 48 | 1.0 | 4.0 | 0.00 | 0.00 | 0.00 | 82 | 1013.3 |
| 20260830132545 | 51 | 49 | 1.0 | 3.0 | 0.00 | 0.00 | 0.00 | 82 | 1013.4 |
| 20260830132043 | 51 | 49 | 0.0 | 2.0 | 0.00 | 0.00 | 0.00 | 82 | 1013.4 |
| 20260830131543 | 51 | 49 | 0.0 | 0.0 | 0.00 | 0.00 | 0.00 | 82 | 1013.5 |
| 20260830131042 | 51 | 49 | 0.0 | 0.0 | 0.00 | 0.00 | 0.00 | 82 | 1013.3 |
| 20260830130542 | 51 | 49 | 0.0 | 0.0 | 0.00 | 0.00 | 0.00 | 82 | 1013.2 |
| 20260830130100 | 51 | 49 | 0.0 | 0.0 | 0.00 | 0.00 | 0.00 | 82 | 1013.2 |
| 20260830125542 | 51 | 49 | 0.0 | 0.0 | 0.00 | 0.00 | 0.00 | 82 | 1013.2 |
| 20260830125041 | 51 | 49 | 0.0 | 0.0 | 0.00 | 0.00 | 0.00 | 83 | 1013.2 |
| 20260830124541 | 51 | 49 | 0.0 | 0.0 | 0.00 | 0.00 | 0.00 | 83 | 1013.1 |
| 20260830124041 | 52 | 49 | 0.0 | 1.0 | 0.00 | 0.00 | 0.00 | 83 | 1013.0 |
| 20260830123540 | 52 | 49 | 0.0 | 2.0 | 0.00 | 0.00 | 0.00 | 83 | 1013.0 |
| 20260830123053 | 52 | 49 | 0.0 | 2.0 | 0.00 | 0.00 | 0.00 | 83 | 1012.9 |
| 20260830122540 | 52 | 46 | 0.0 | 2.0 | 0.00 | 0.00 | 0.00 | 83 | 1012.9 |
| 20260830122043 | 52 | 46 | 0.0 | 0.0 | 0.00 | 0.00 | 0.00 | 83 | 1012.9 |
| 20260830121543 | 52 | 46 | 0.0 | 0.0 | 0.00 | 0.00 | 0.00 | 83 | 1012.9 |
| 20260830121043 | 52 | 46 | 0.0 | 0.0 | 0.00 | 0.00 | 0.00 | 83 | 1012.9 |
| 20260830120538 | 52 | 46 | 0.0 | 0.0 | 0.00 | 0.00 | 0.00 | 84 | 1013.0 |
| 20260830120038 | 52 | 46 | 0.0 | 0.0 | 0.00 | 0.00 | 0.00 | 84 | 1013.0 |
| 20260830115537 | 52 | 46 | 0.0 | 0.0 | 0.00 | 0.00 | 0.00 | 84 | 1013.0 |
| 20260830115041 | 52 | 46 | 0.0 | 0.0 | 0.00 | 0.00 | 0.00 | 84 | 1013.0 |
| 20260830114544 | 52 | 46 | 0.0 | 0.0 | 0.00 | 0.00 | 0.00 | 84 | 1013.0 |
| 20260830114039 | 52 | 46 | 0.0 | 0.0 | 0.00 | 0.00 | 0.00 | 84 | 1013.0 |
| 20260830113536 | 52 | 46 | 0.0 | 0.0 | 0.00 | 0.00 | 0.00 | 84 | 1013.1 |
| 20260830113036 | 52 | 46 | 0.0 | 0.0 | 0.00 | 0.00 | 0.00 | 84 | 1013.1 |
| 20260830112536 | 52 | 46 | 0.0 | 0.0 | 0.00 | 0.00 | 0.00 | 84 | 1013.1 |
| 20260830112035 | 52 | 46 | 0.0 | 0.0 | 0.00 | 0.00 | 0.00 | 84 | 1013.1 |
| 20260830111535 | 52 | 46 | 0.0 | 0.0 | 0.00 | 0.00 | 0.00 | 85 | 1013.0 |
| 20260830111035 | 52 | 46 | 0.0 | 0.0 | 0.00 | 0.00 | 0.00 | 85 | 1013.1 |
| 20260830110534 | 52 | 46 | 0.0 | 0.0 | 0.00 | 0.00 | 0.00 | 85 | 1013.1 |
| 20260830110034 | 52 | 46 | 0.0 | 0.0 | 0.00 | 0.00 | 0.00 | 85 | 1013.1 |
| 20260830105533 | 52 | 46 | 0.0 | 0.0 | 0.00 | 0.00 | 0.00 | 85 | 1013.1 |
| 20260830105032 | 52 | 46 | 0.0 | 0.0 | 0.00 | 0.00 | 0.00 | 85 | 1013.2 |
| 20260830104534 | 52 | 46 | 0.0 | 0.0 | 0.00 | 0.00 | 0.00 | 85 | 1013.2 |
| 20260830104032 | 52 | 46 | 0.0 | 0.0 | 0.00 | 0.00 | 0.00 | 85 | 1013.2 |
| 20260830103533 | 52 | 46 | 0.0 | 0.0 | 0.00 | 0.00 | 0.00 | 85 | 1013.1 |
| 20260830103035 | 52 | 46 | 0.0 | 0.0 | 0.00 | 0.00 | 0.00 | 85 | 1013.1 |
| 20260830102531 | 52 | 46 | 0.0 | 0.0 | 0.00 | 0.00 | 0.00 | 85 | 1013.0 |
| 20260830102030 | 53 | 46 | 0.0 | 0.0 | 0.00 | 0.00 | 0.00 | 85 | 1013.1 |
| 20260830101529 | 53 | 46 | 0.0 | 2.0 | 0.00 | 0.00 | 0.00 | 85 | 1013.1 |
| 20260830101028 | 53 | 46 | 0.0 | 2.0 | 0.00 | 0.00 | 0.00 | 85 | 1013.1 |
| 20260830100528 | 53 | 46 | 0.0 | 2.0 | 0.00 | 0.00 | 0.00 | 85 | 1013.1 |
| 20260830100028 | 53 | 46 | 0.0 | 3.0 | 0.00 | 0.00 | 0.00 | 85 | 1013.0 |
| 20260830095527 | 53 | 46 | 1.0 | 2.0 | 0.00 | 0.00 | 0.00 | 85 | 1013.2 |
| 20260830095026 | 53 | 46 | 0.0 | 0.0 | 0.00 | 0.00 | 0.00 | 85 | 1013.2 |
| 20260830094530 | 53 | 46 | 0.0 | 0.0 | 0.00 | 0.00 | 0.00 | 85 | 1013.2 |
| 20260830094025 | 53 | 46 | 0.0 | 0.0 | 0.00 | 0.00 | 0.00 | 85 | 1013.0 |
| 20260830093525 | 53 | 46 | 0.0 | 0.0 | 0.00 | 0.00 | 0.00 | 85 | 1012.9 |
| 20260830093024 | 53 | 46 | 0.0 | 0.0 | 0.00 | 0.00 | 0.00 | 86 | 1013.0 |
| 20260830092524 | 53 | 46 | 0.0 | 0.0 | 0.00 | 0.00 | 0.00 | 86 | 1012.9 |
| 20260830092024 | 53 | 46 | 0.0 | 0.0 | 0.00 | 0.00 | 0.00 | 86 | 1012.9 |
| 20260830091524 | 53 | 46 | 0.0 | 0.0 | 0.00 | 0.00 | 0.00 | 86 | 1013.0 |
| 20260830091023 | 53 | 46 | 0.0 | 0.0 | 0.00 | 0.00 | 0.00 | 86 | 1013.0 |
| 20260830090522 | 54 | 46 | 0.0 | 0.0 | 0.00 | 0.00 | 0.00 | 86 | 1013.0 |
| 20260830090022 | 54 | 46 | 0.0 | 0.0 | 0.00 | 0.00 | 0.00 | 86 | 1013.0 |
| 20260830085521 | 54 | 46 | 0.0 | 0.0 | 0.00 | 0.00 | 0.00 | 86 | 1013.0 |
| 20260830085020 | 54 | 46 | 0.0 | 0.0 | 0.00 | 0.00 | 0.00 | 86 | 1013.1 |
| 20260830084520 | 54 | 46 | 0.0 | 0.0 | 0.00 | 0.00 | 0.00 | 86 | 1013.2 |
| 20260830084019 | 54 | 46 | 0.0 | 0.0 | 0.00 | 0.00 | 0.00 | 86 | 1013.1 |
| 20260830083519 | 54 | 46 | 0.0 | 2.0 | 0.00 | 0.00 | 0.00 | 86 | 1013.2 |
| 20260830083019 | 54 | 46 | 0.0 | 2.0 | 0.00 | 0.00 | 0.00 | 86 | 1013.1 |
| 20260830082518 | 54 | 45 | 0.0 | 0.0 | 0.00 | 0.00 | 0.00 | 86 | 1013.2 |
| 20260830082016 | 54 | 45 | 0.0 | 0.0 | 0.00 | 0.00 | 0.00 | 86 | 1013.2 |
| 20260830081533 | 54 | 45 | 0.0 | 0.0 | 0.00 | 0.00 | 0.00 | 86 | 1013.2 |
| 20260830081015 | 55 | 45 | 0.0 | 0.0 | 0.00 | 0.00 | 0.00 | 86 | 1013.3 |
| 20260830080515 | 55 | 45 | 0.0 | 0.0 | 0.00 | 0.00 | 0.00 | 86 | 1013.3 |
| 20260830080017 | 55 | 45 | 0.0 | 0.0 | 0.00 | 0.00 | 0.00 | 86 | 1013.2 |
| 20260830075514 | 55 | 45 | 0.0 | 0.0 | 0.00 | 0.00 | 0.00 | 86 | 1013.2 |
| 20260830075013 | 55 | 45 | 0.0 | 0.0 | 0.00 | 0.00 | 0.00 | 87 | 1013.2 |
| 20260830074513 | 55 | 45 | 0.0 | 0.0 | 0.00 | 0.00 | 0.00 | 87 | 1013.3 |
| 20260830074012 | 55 | 45 | 0.0 | 0.0 | 0.00 | 0.00 | 0.00 | 87 | 1013.3 |
| 20260830073511 | 55 | 45 | 0.0 | 0.0 | 0.00 | 0.00 | 0.00 | 87 | 1013.4 |
| 20260830073010 | 55 | 45 | 0.0 | 3.0 | 0.00 | 0.00 | 0.00 | 87 | 1013.3 |
| 20260830072510 | 55 | 45 | 0.0 | 3.0 | 0.00 | 0.00 | 0.00 | 87 | 1013.3 |
| 20260830072009 | 55 | 45 | 0.0 | 3.0 | 0.00 | 0.00 | 0.00 | 86 | 1013.3 |
| 20260830071508 | 55 | 45 | 0.0 | 3.0 | 0.00 | 0.00 | 0.00 | 86 | 1013.4 |
| 20260830071008 | 56 | 45 | 0.0 | 0.0 | 0.00 | 0.00 | 0.00 | 87 | 1013.4 |
| 20260830070507 | 56 | 45 | 0.0 | 0.0 | 0.00 | 0.00 | 0.00 | 87 | 1013.4 |
| 20260830070005 | 56 | 45 | 0.0 | 0.0 | 0.00 | 0.00 | 0.00 | 87 | 1013.5 |
| 20260830065505 | 56 | 45 | 0.0 | 0.0 | 0.00 | 0.00 | 0.00 | 87 | 1013.5 |
| 20260830065007 | 56 | 45 | 0.0 | 0.0 | 0.00 | 0.00 | 0.00 | 87 | 1013.4 |
| 20260830064505 | 56 | 45 | 0.0 | 0.0 | 0.00 | 0.00 | 0.00 | 87 | 1013.5 |
| 20260830064005 | 56 | 45 | 0.0 | 0.0 | 0.00 | 0.00 | 0.00 | 87 | 1013.5 |
| 20260830063506 | 56 | 45 | 0.0 | 0.0 | 0.00 | 0.00 | 0.00 | 87 | 1013.5 |
| 20260830063010 | 56 | 45 | 0.0 | 0.0 | 0.00 | 0.00 | 0.00 | 87 | 1013.5 |
| 20260830062504 | 56 | 45 | 0.0 | 0.0 | 0.00 | 0.00 | 0.00 | 87 | 1013.4 |
| 20260830062006 | 56 | 45 | 0.0 | 0.0 | 0.00 | 0.00 | 0.00 | 87 | 1013.5 |
| 20260830061502 | 56 | 45 | 0.0 | 0.0 | 0.00 | 0.00 | 0.00 | 87 | 1013.5 |
| 20260830061002 | 57 | 45 | 0.0 | 0.0 | 0.00 | 0.00 | 0.00 | 87 | 1013.5 |
| 20260830060502 | 57 | 45 | 0.0 | 0.0 | 0.00 | 0.00 | 0.00 | 87 | 1013.5 |
| 20260830060101 | 57 | 45 | 0.0 | 0.0 | 0.00 | 0.00 | 0.00 | 87 | 1013.5 |
| 20260830055600 | 57 | 45 | 0.0 | 0.0 | 0.00 | 0.00 | 0.00 | 88 | 1013.5 |
| 20260830055100 | 57 | 45 | 0.0 | 0.0 | 0.00 | 0.00 | 0.00 | 88 | 1013.6 |
| 20260830054559 | 57 | 45 | 0.0 | 0.0 | 0.00 | 0.00 | 0.00 | 88 | 1013.6 |
| 20260830054058 | 57 | 45 | 0.0 | 0.0 | 0.00 | 0.00 | 0.00 | 88 | 1013.6 |
| 20260830053558 | 58 | 45 | 0.0 | 0.0 | 0.00 | 0.00 | 0.00 | 88 | 1013.6 |
| 20260830053058 | 58 | 45 | 0.0 | 0.0 | 0.00 | 0.00 | 0.00 | 88 | 1013.7 |
| 20260830052557 | 58 | 45 | 0.0 | 0.0 | 0.00 | 0.00 | 0.00 | 88 | 1013.7 |
| 20260830052056 | 58 | 45 | 0.0 | 0.0 | 0.00 | 0.00 | 0.00 | 88 | 1013.9 |
| 20260830051556 | 58 | 45 | 0.0 | 0.0 | 0.00 | 0.00 | 0.00 | 88 | 1013.7 |
| 20260830051056 | 58 | 45 | 0.0 | 0.0 | 0.00 | 0.00 | 0.00 | 88 | 1013.8 |
| 20260830050555 | 58 | 45 | 0.0 | 0.0 | 0.00 | 0.00 | 0.00 | 88 | 1013.7 |
| 20260830050049 | 58 | 45 | 0.0 | 0.0 | 0.00 | 0.00 | 0.00 | 88 | 1013.8 |
| 20260830045548 | 59 | 45 | 0.0 | 0.0 | 0.00 | 0.00 | 0.00 | 88 | 1013.7 |
| 20260830045051 | 59 | 45 | 0.0 | 0.0 | 0.00 | 0.00 | 0.00 | 88 | 1013.8 |
| 20260830044548 | 59 | 45 | 0.0 | 0.0 | 0.00 | 0.00 | 0.00 | 88 | 1013.7 |
| 20260830044048 | 59 | 45 | 0.0 | 1.0 | 0.00 | 0.00 | 0.00 | 88 | 1013.6 |
| 20260830043548 | 59 | 45 | 0.0 | 5.0 | 0.00 | 0.00 | 0.00 | 88 | 1013.7 |
| 20260830043048 | 59 | 45 | 0.0 | 5.0 | 0.00 | 0.00 | 0.00 | 88 | 1013.7 |
| 20260830042548 | 60 | 50 | 1.0 | 5.0 | 0.00 | 0.00 | 0.00 | 88 | 1013.6 |
| 20260830042047 | 60 | 48 | 1.0 | 5.0 | 0.00 | 0.00 | 0.00 | 88 | 1013.6 |
| 20260830041605 | 60 | 43 | 2.0 | 4.0 | 0.00 | 0.00 | 0.00 | 89 | 1013.5 |
| 20260830041046 | 60 | 44 | 0.0 | 4.0 | 0.00 | 0.00 | 0.00 | 89 | 1013.6 |
| 20260830040548 | 60 | 43 | 0.0 | 4.0 | 0.00 | 0.00 | 0.00 | 89 | 1013.6 |
| 20260830040043 | 60 | 42 | 0.0 | 4.0 | 0.00 | 0.00 | 0.00 | 89 | 1013.6 |
| 20260830035540 | 60 | 39 | 1.0 | 3.0 | 0.00 | 0.00 | 0.00 | 89 | 1013.4 |
| 20260830035043 | 61 | 36 | 0.0 | 4.0 | 0.00 | 0.00 | 0.00 | 89 | 1013.3 |
| 20260830034539 | 61 | 97 | 0.0 | 3.0 | 0.00 | 0.00 | 0.00 | 89 | 1013.3 |
| 20260830034040 | 61 | 97 | 1.0 | 3.0 | 0.00 | 0.00 | 0.00 | 89 | 1013.3 |
| 20260830033538 | 61 | 100 | 0.0 | 4.0 | 0.00 | 0.00 | 0.00 | 89 | 1013.2 |
| 20260830033043 | 62 | 100 | 1.0 | 4.0 | 0.00 | 0.00 | 0.00 | 90 | 1013.1 |
| 20260830032538 | 62 | 66 | 0.0 | 3.0 | 0.00 | 0.00 | 0.00 | 89 | 1013.1 |
| 20260830032038 | 62 | 42 | 0.0 | 4.0 | 0.00 | 0.00 | 0.00 | 89 | 1013.1 |
| 20260830031538 | 63 | 41 | 0.0 | 4.0 | 0.00 | 0.00 | 0.00 | 89 | 1013.0 |
| 20260830031038 | 63 | 32 | 0.0 | 4.0 | 0.00 | 0.00 | 0.00 | 89 | 1012.9 |
| 20260830030541 | 63 | 11 | 0.0 | 4.0 | 0.00 | 0.00 | 0.00 | 89 | 1012.9 |
| 20260830030026 | 64 | 24 | 0.0 | 7.0 | 0.00 | 0.00 | 0.00 | 89 | 1012.9 |
| 20260830025523 | 64 | 46 | 2.0 | 8.0 | 0.00 | 0.00 | 0.00 | 89 | 1012.8 |
| 20260830025023 | 65 | 46 | 2.0 | 8.0 | 0.00 | 0.00 | 0.00 | 89 | 1012.7 |
| 20260830024525 | 65 | 4 | 1.0 | 6.0 | 0.00 | 0.00 | 0.00 | 88 | 1012.8 |
| 20260830024024 | 65 | 63 | 0.0 | 7.0 | 0.00 | 0.00 | 0.00 | 88 | 1012.7 |
| 20260830023523 | 66 | 64 | 1.0 | 7.0 | 0.00 | 0.00 | 0.00 | 88 | 1012.8 |
| 20260830023023 | 66 | 61 | 0.0 | 4.0 | 0.00 | 0.00 | 0.00 | 88 | 1012.5 |
| 20260830022524 | 66 | 48 | 0.0 | 5.0 | 0.00 | 0.00 | 0.00 | 88 | 1012.6 |
| 20260830022022 | 67 | 51 | 0.0 | 6.0 | 0.00 | 0.00 | 0.00 | 87 | 1012.5 |
| 20260830021621 | 67 | 37 | 1.0 | 6.0 | 0.00 | 0.00 | 0.00 | 87 | 1012.5 |
| 20260830021021 | 68 | 54 | 1.0 | 6.0 | 0.00 | 0.00 | 0.00 | 87 | 1012.6 |
| 20260830020525 | 68 | 38 | 0.0 | 4.0 | 0.00 | 0.00 | 0.00 | 87 | 1012.4 |
| 20260830015557 | 69 | 32 | 0.0 | 5.0 | 0.00 | 0.00 | 0.00 | 86 | 1012.3 |
| 20260830015057 | 69 | 58 | 0.0 | 5.0 | 0.00 | 0.00 | 0.00 | 86 | 1012.2 |